Regional Weather Roundup
Issued by NWS

Home | Current Version | Previous Version | Text Only | Print | Product List | Glossary Off
Versions: 1 2 3 4 5 6 7 8 9 10 11 12 13 14 15 16 17 18 19 20 21 22 23 24 25 26 27 28 29 30 31 32 33 34 35 36 37 38 39 40 41 42 43 44 45 46 47 48 49 50

000
ASUS43 KDMX 290307
RWRIA

WEATHER ROUNDUP FOR IOWA
NATIONAL WEATHER SERVICE DES MOINES IA
1000 PM CDT THU MAY 28 2015

NOTE: "FAIR" INDICATES FEW OR NO CLOUDS BELOW 12,000 FEET WITH NO
SIGNIFICANT WEATHER AND/OR OBSTRUCTIONS TO VISIBILITY.

* - THESE STATIONS ARE NOT NWS STATIONS...THUS NOT UNDER NWS
QUALITY CONTROL.  THEY ALSO DO NOT REPORT WEATHER SUCH
AS PRECIPITATION OR FOG.

IAZ001>003-012>014-020>022-031>034-043>046-290400-
   NORTHWEST IOWA

CITY           SKY/WX    TMP DP  RH WIND       PRES   REMARKS
CARROLL *      CLOUDY    68  64  88 S7        29.96R
CHEROKEE *     CLOUDY    67  64  93 S13       29.95R
DENISON *      CLOUDY    68  68 100 S8        29.94S
LE MARS *      CLOUDY    68  63  83 SE10G17   29.94R
ORANGE CITY *  CLEAR     64  61  88 S9        29.94R
SHELDON *      MOCLDY    66  64  94 SE13      29.93R
SIOUX CITY     CLOUDY    69  62  78 SE9       29.93R
SPENCER        MOCLDY    67  62  84 S13       29.95R
STORM LAKE *   MOCLDY    66  63  88 S9        29.97S
$$

IAZ055>058-069>071-079>083-090>094-290400-
   SOUTHWEST IOWA

CITY           SKY/WX    TMP DP  RH WIND       PRES   REMARKS
ATLANTIC *     CLOUDY    70  66  88 S7        29.96S
AUDUBON *      LGT RAIN  68  63  83 SE6       29.98R
CLARINDA *     MOCLDY    68  64  88 SE7G13    29.98S
COUNCIL BLFS * MOCLDY    66  66 100 S8        29.96R
CRESTON *      CLEAR     66  64  94 S8        29.99R
HARLAN  *      CLOUDY    68  68 100 S6        29.99S
LAMONI         CLOUDY    70  65  84 S8        29.99S
RED OAK *      PTCLDY    68  64  88 S7        29.97R
SHENANDOAH *   CLEAR     68  64  88 S8        29.97R
$$

IAZ047>049-059>061-072>074-084-290400-
   CENTRAL IOWA

CITY           SKY/WX    TMP DP  RH WIND       PRES   REMARKS
AMES           CLOUDY    67  62  84 S12       29.97R
ANKENY *       CLEAR     66  64  94 S7        29.97S
CHARITON *     CLOUDY    66  64  94 SE12      29.99S
DES MOINES     CLOUDY    68  64  87 SE9       29.97S
GRINNELL*      DRIZZLE   64  63  94 SE13      29.99R
KNOXVILLE *    CLOUDY    66  64  94 SE10      29.97S
MARSHALLTOWN   CLOUDY    67  62  84 SE9       29.97S
PELLA *        CLOUDY    64  64 100 SE9       29.99F
PERRY *        MOCLDY    68  63  83 S12       29.98R
$$

IAZ004>006-015-016-023>025-035-036-290400-
   NORTH CENTRAL IOWA

CITY           SKY/WX    TMP DP  RH WIND       PRES   REMARKS
ALGONA *       CLOUDY    70  63  78 S10       29.97R
CLARION *      CLOUDY    70  61  73 S13       29.97S
ESTHERVILLE    CLOUDY    67  60  78 S12       29.95R
MASON CITY     CLOUDY    70  58  65 S10       29.98R
FOREST CITY *  CLOUDY    68  57  68 S10       29.97R
IOWA FALLS *   CLOUDY    68  61  77 S12       29.99S
$$

IAZ007>011-017>019-026>030-037>042-050>054-066-290400-
   NORTHEAST IOWA

CITY           SKY/WX    TMP DP  RH WIND       PRES   REMARKS
CEDAR RAPIDS   CLOUDY    67  63  87 S8        30.00R
CHARLES CITY * PTCLDY    68  57  68 S8        30.00R
CLINTON *      PTCLDY    70  54  56 SE8       30.03F
DECORAH *      PTCLDY    70  52  52 S7        29.99R
DUBUQUE        MOCLDY    66  53  63 S10       30.01F
MONTICELLO *   CLEAR     70  57  64 S7        30.01R
OELWEIN *      CLOUDY    70  59  68 S10       30.00R
WATERLOO       MOCLDY    69  58  67 S10       29.97R
$$

IAZ064-065-067-068-078-290400-
   EAST CENTRAL IOWA

CITY           SKY/WX    TMP DP  RH WIND       PRES   REMARKS
DAVENPORT      PTCLDY    70  58  65 W10       30.03S
IOWA CITY      CLOUDY    66  63  90 S7        30.03R
MT. PLEASANT * CLOUDY    64  64 100 E3        30.02S
MUSCATINE *    CLEAR     66  63  88 SE3       30.02S
QUAD CITIES    PTCLDY    67  58  72 W9        30.01F
$$

IAZ062-063-075>077-085>089-095>099-290400-
   SOUTHEAST IOWA

CITY           SKY/WX    TMP DP  RH WIND       PRES   REMARKS
BURLINGTON     CLOUDY    67  62  84 E5        30.02F
FAIRFIELD *    MOCLDY    64  63  94 SE6       30.00F
FORT MADISON * CLEAR     64  63  94 CALM      30.04R
KEOKUK *       MOCLDY    64  64 100 SE6       30.02R
OSKALOOSA *    MOCLDY    64  63  94 S9        30.00R
CENTERVILLE *  PTCLDY    64  64 100 SE8       30.02R
OTTUMWA        CLOUDY    65  64  97 S10       29.99F
WASHINGTON *   MOCLDY    66  64  94 S7        30.03S
$$

ABBREVIATIONS USED IN REMARKS
   TC - TEMPERATURES IN CELSIUS
  WCI - WIND CHILL INDEX
   HX - HEAT INDEX
  VSB - VISIBILITY
$$




USA.gov is the U.S. government's official web portal to all federal, state and local government web resources and services.